This is the latest recevied weather packets stored in our database for station/object KF4CQ. If no packets are shown the sender has not sent any weather packets the latest 10 day(s).
| Time | Temp. | Humidity | Pressure | Rain* | Wind** | Luminosity | Snow |
|---|---|---|---|---|---|---|---|
| 1777503177 | 30° C | 55% | 1012.4 hPa | 0 mm | - | 30 W/m² | - |
| 1777502874 | 30° C | 56% | 1012.3 hPa | 0 mm | - | 37 W/m² | - |
| 1777502572 | 30.56° C | 54% | 1012.5 hPa | 0 mm | - | 46 W/m² | - |
| 1777502269 | 30.56° C | 55% | 1012.4 hPa | 0 mm | - | 75 W/m² | - |
| 1777501966 | 31.11° C | 53% | 1012.2 hPa | 0 mm | - | 36 W/m² | - |
| 1777501663 | 31.11° C | 53% | 1012.1 hPa | 0 mm | - | 45 W/m² | - |
| 1777501360 | 31.11° C | 52% | 1012.1 hPa | 0 mm | - | 50 W/m² | - |
| 1777501058 | 31.11° C | 53% | 1012.2 hPa | 0 mm | - | 40 W/m² | - |
| 1777500755 | 31.11° C | 52% | 1012.2 hPa | 0 mm | - | 39 W/m² | - |
| 1777500452 | 31.67° C | 51% | 1012.2 hPa | 0 mm | - | 41 W/m² | - |
| 1777500148 | 31.67° C | 50% | 1012.5 hPa | 0 mm | - | 46 W/m² | - |
| 1777499846 | 31.67° C | 50% | 1012.3 hPa | 0 mm | - | 46 W/m² | - |
| 1777499541 | 31.67° C | 50% | 1012.5 hPa | 0 mm | - | 47 W/m² | - |
| 1777499240 | 31.67° C | 51% | 1012.3 hPa | 0 mm | - | 50 W/m² | - |
| 1777498936 | 32.22° C | 49% | 1012.3 hPa | 0 mm | - | 50 W/m² | - |
| 1777498633 | 31.67° C | 50% | 1012.3 hPa | 0 mm | - | 53 W/m² | - |
| 1777498329 | 32.22° C | 49% | 1012.4 hPa | 0 mm | - | 67 W/m² | - |
| 1777498027 | 32.22° C | 49% | 1012.2 hPa | 0 mm | - | 69 W/m² | - |
| 1777497724 | 31.67° C | 50% | 1012.4 hPa | 0 mm | - | 103 W/m² | - |
| 1777497420 | 32.22° C | 50% | 1012.4 hPa | 0 mm | - | 300 W/m² | - |
| 1777497115 | 32.78° C | 49% | 1012.6 hPa | 0 mm | - | 385 W/m² | - |
| 1777496813 | 32.22° C | 49% | 1012.5 hPa | 0 mm | - | 378 W/m² | - |
| 1777496509 | 32.78° C | 49% | 1012.6 hPa | 0 mm | - | 367 W/m² | - |
| 1777496206 | 32.22° C | 49% | 1012.6 hPa | 0 mm | - | 314 W/m² | - |
| 1777495902 | 32.22° C | 49% | 1012.7 hPa | 0 mm | - | 82 W/m² | - |
* Rain latest hour (hover to see other rain measurements)
** Current wind speed in m/s (hover to see current wind gust speed)